Location: Caltech
(34.1382°N, 118.1253°W)
Time: 01:17:55
(UTC-07:00)

Iridium 12 - Visible Passes

Search period start: 30 June 2015 00:00
Search period end: 10 July 2015 00:00
Orbit: 776 x 779 km, 86.4° (Epoch: 29 June)

Date Brightness Start Highest point End Pass type
(mag) Time Alt. Az. Time Alt. Az. Time Alt. Az.
30 Jun 7.6 00:45:21 18° ENE 00:45:21 18° ENE 00:47:53 10° NE visible
30 Jun 6.6 02:25:50 35° NW 02:25:50 35° NW 02:29:34 10° NNW visible
01 Jul 6.2 01:52:27 50° NNW 01:52:27 50° NNW 01:56:20 10° N visible
02 Jul 6.6 01:19:04 41° NE 01:19:04 41° NE 01:22:42 10° NNE visible
02 Jul 7.7 02:59:33 13° WNW 02:59:33 13° WNW 03:01:17 10° NW visible
03 Jul 7.3 00:45:41 24° ENE 00:45:41 24° ENE 00:48:39 10° NNE visible
03 Jul 7.1 02:26:09 24° WNW 02:26:09 24° WNW 02:29:15 10° NNW visible
04 Jul 7.9 00:12:17 13° ENE 00:12:17 13° ENE 00:13:45 10° NE visible
04 Jul 6.6 01:52:45 38° NW 01:52:45 38° NW 01:56:18 10° N visible
05 Jul 6.5 01:19:21 44° N 01:19:21 44° N 01:22:54 10° N visible
06 Jul 7.0 00:45:57 31° NE 00:45:57 31° NE 00:49:07 10° NNE visible
06 Jul 7.6 02:26:25 17° WNW 02:26:25 17° WNW 02:28:38 10° NW visible
07 Jul 7.5 00:12:32 19° ENE 00:12:32 19° ENE 00:14:49 10° NE visible
07 Jul 7.0 01:53:00 28° NW 01:53:00 28° NW 01:56:06 10° NNW visible
08 Jul 6.6 01:19:35 40° NNW 01:19:35 40° NNW 01:22:58 10° N visible
09 Jul 6.7 00:46:09 38° NNE 00:46:09 38° NNE 00:49:25 10° N visible
09 Jul 7.9 02:26:37 11° WNW 02:26:37 11° WNW 02:27:19 10° NW visible
